风云三号D星 (FENGYUN 3D)

导读 | 星芒AI

FENGYUN 3D 是中国风云三号气象卫星系列中的一颗极轨气象卫星,于2017年发射。它主要用于全球气象观测、环境监测和气候变化研究,搭载了多种先进的遥感仪器,如红外高光谱探测仪和微波探测仪,能够提供高精度的气象数据。FENGYUN 3D 在提升天气预报准确性、灾害预警和地球科学研究方面发挥了重要作用。

基本信息
目录编号:
43010
目录名称:
FENGYUN 3D
国际标识:
2017-072A
轨道中心:
EARTH
卫星名称:
风云三号D星
卫星全名:
风云三号D星 (FENGYUN 3D)
卫星状态:
在轨 (已飞行2953 天)
发射日期:
2017-11-14 UTC
国别 :
中国 (CN)
星等 :
--
轨道信息
数据来源 国际轨道数据 AOE轨道数据
星历时间 2025-12-14T16:37:20+0800
23小时前
查看轨道信息
2025-12-11T14:00:00+0800
4天前
查看轨道信息
半长轴 7204.557km 7204.566km
偏心率 0.0000997 0.000002
轨道倾角 98.989° 98.989°
近地点辐角 175.601° 106.579°
升交点赤经 314.694° 311.538°
平近点角 184.517° 211.391°
近地点 825.703km 826.416km
远地点 827.141km 826.446km
周期 101.431分钟 101.431分钟
每日圈数 14.196845 14.196819
详细信息
平衡模式:
三轴稳定
覆盖范围:
亚洲
运营商:
夏威夷科学技术博物馆
运营商所在国:
美国
制造商(研发单位):
上海航天技术研究院
制造商所在国:
中国
使用方式:
暂无
卫星简介
风云气象卫星系列(FENGYUN Meteorological Satellite)是中国于1977年开始研制的气象卫星系列,目前发射了风云一号、风云二号、风云三号、风云四号等卫星系列。其中,风云二号系列、风云四号系列为风云静止卫星,风云一号系列、风云三号系列为风云极轨卫星。该卫星仍在工作。
2D轨道图
3D轨道图
轨道高度分析图
轨道倾角分析图
轨道综合分析图
查看轨道综合分析图